Tracking 29892 objects as of 21-Nov-2024
HD Live streaming from Space Station
objects crossing your sky now

STARLINK-1357

Track STARLINK-1357 now!
10-day predictions
STARLINK-1357 is classified as:


NORAD ID: 45565
Int'l Code: 2020-025AL
Perigee: 553.4 km
Apogee: 555.2 km
Inclination: 53.1 °
Period: 95.6 minutes
Semi major axis: 6925 km
RCS: Unknown
Launch date: April 22, 2020
Source: United States (US)
Launch site: AIR FORCE EASTERN TEST RANGE (AFETR)
Your satellite tracking list
Your tracking list is empty




NASA's NSSDC Master Catalog

Two Line Element Set (TLE):
1 45565U 20025AL  24325.28586588  .00012703  00000-0  86972-3 0  9998
2 45565  53.0531  56.2973 0001264  78.9264 281.1867 15.06417794253866
Source of the keplerian elements: AFSPC